sat.trackr.live / text

‹ back to catalog

INMARSAT 3-F3

NORAD 24674 · 1996-070A

PAYLOAD ACTIVE UNKNOWN

§ Identity

Operator
Country
IM
Launch date
1996-12-18
Launch site
AFETR
Launch vehicle
Mass (kg)
RCS (m²)
28.18

Purposes: comms

External: N2YO · Heavens-Above · Gunter

§ Orbital elements

Epoch: 2026-05-24T19:30:23.981184Z

Period
1,440.37 min
Inclination
10.2689°
Eccentricity
0.0003825
Mean motion
0.99974458 rev/d
Perigee alt
35,854.0 km
Apogee alt
35,886.3 km
Semi-major
42,248.3 km
B*
0.0000e+0
RAAN
49.8752°
Arg perigee
357.7220°
Mean anomaly
194.6919°
Rev number
10,767

§ Raw data

INMARSAT 3-F31 24674U 96070A   26144.81277756  .00000026  00000+0  00000+0 0  99912 24674  10.2689  49.8752 0003825 357.7220 194.6919  0.99974458107675

JSON: /api/v1/satellites/24674 · /tle

For live sub-satellite position, see the globe view (requires WebGL).

§ Visibility from observer

Set your observer location to see the next 7 days of passes ≥ 10°. The values pass through the URL so the page stays shareable.

No JS? Fill the form by hand. The geolocation button needs JavaScript.